FW3572 Weather Reports


time (UTC)temp
C
wind
direction
speed
KPH
gust
KPH
rain 1hr
cm
rain 24hr
cm
rain mn
cm
humidity
%
barometer
mb
20260905020631 28 195 0.0 3.2 0.00 0.08 0.08 100 1017.2
20260905020030 28 194 0.0 4.8 0.00 0.08 0.08 100 1017.2
20260905015529 28 194 0.0 4.8 0.00 0.08 0.08 100 1017.1
20260905015033 28 194 0.0 0.0 0.00 0.08 0.08 100 1017.1
20260905014529 28 194 0.0 0.0 0.00 0.08 0.08 100 1017.1
20260905014028 28 194 0.0 0.0 0.00 0.08 0.08 100 1017.0
20260905013532 28 194 0.0 0.0 0.00 0.08 0.08 100 1017.0
20260905013028 28 194 0.0 0.0 0.00 0.08 0.08 100 1017.0
20260905012528 28 194 0.0 3.2 0.00 0.08 0.08 100 1017.0
20260905012029 28 194 0.0 3.2 0.00 0.08 0.08 100 1017.1
20260905011528 28 194 0.0 3.2 0.00 0.08 0.08 100 1017.1
20260905011028 28 192 0.0 3.2 0.00 0.08 0.08 100 1017.0
20260905010529 28 192 0.0 6.4 0.00 0.08 0.08 100 1017.1
20260905010028 28 191 1.6 6.4 0.00 0.08 0.08 100 1016.9
20260905005528 29 186 1.6 4.8 0.00 0.08 0.08 100 1016.9
20260905005027 29 221 1.6 6.4 0.00 0.08 0.08 100 1016.9
20260905004528 29 192 1.6 8.0 0.00 0.08 0.08 100 1016.8
20260905004030 29 191 1.6 12.9 0.00 0.08 0.08 100 1016.8
20260905003530 29 200 3.2 12.9 0.00 0.08 0.08 100 1016.9
20260905003027 29 167 6.4 12.9 0.00 0.08 0.08 100 1016.9
20260905002525 29 144 4.8 12.9 0.00 0.08 0.08 100 1016.7
20260905002027 29 163 3.2 12.9 0.00 0.08 0.08 100 1016.7
20260905001527 29 166 6.4 14.5 0.00 0.08 0.08 100 1016.6
20260905001025 29 132 4.8 14.5 0.00 0.08 0.08 100 1016.6
20260905000526 29 139 6.4 14.5 0.00 0.08 0.08 100 1016.5
20260905000026 29 142 4.8 17.7 0.00 0.08 0.08 100 1016.6
20260904235526 29 169 9.7 17.7 0.00 0.08 0.08 100 1016.5
20260904235025 29 176 3.2 16.1 0.00 0.08 0.08 100 1016.3
20260904234536 29 168 8.0 16.1 0.00 0.08 0.08 100 1016.2
20260904234025 29 150 4.8 19.3 0.00 0.08 0.08 100 1016.2
20260904233524 29 167 6.4 19.3 0.00 0.08 0.08 100 1016.2
20260904233025 29 153 9.7 20.9 0.00 0.08 0.08 100 1016.1
20260904232524 29 163 4.8 14.5 0.00 0.08 0.08 100 1016.0
20260904232026 29 184 4.8 20.9 0.00 0.08 0.08 100 1016.2
20260904231524 29 184 9.7 20.9 0.00 0.08 0.08 100 1016.2
20260904231023 30 165 6.4 19.3 0.00 0.08 0.08 100 1016.0
20260904230524 30 141 9.7 24.1 0.00 0.08 0.08 100 1016.0
20260904230023 30 168 8.0 29.0 0.00 0.08 0.08 100 1016.0
20260904225522 30 153 17.7 29.0 0.00 0.08 0.08 100 1016.1
20260904225025 30 157 9.7 22.5 0.00 0.08 0.08 100 1016.0
20260904224522 30 128 3.2 22.5 0.00 0.08 0.08 100 1015.8
20260904224026 30 140 8.0 25.7 0.00 0.08 0.08 100 1015.6
20260904223522 30 139 11.3 25.7 0.00 0.08 0.08 100 1015.5
20260904223022 30 159 8.0 20.9 0.00 0.08 0.08 100 1015.5
20260904222521 30 186 14.5 20.9 0.00 0.08 0.08 100 1015.5
20260904222021 30 146 12.9 25.7 0.00 0.08 0.08 100 1015.6
20260904221523 30 150 11.3 25.7 0.00 0.08 0.08 100 1015.6
20260904221022 30 158 8.0 22.5 0.00 0.08 0.08 100 1015.5
20260904220523 30 158 9.7 29.0 0.00 0.08 0.08 100 1015.4
20260904220021 30 142 11.3 29.0 0.00 0.08 0.08 100 1015.5
20260904215519 30 153 9.7 24.1 0.00 0.08 0.08 100 1015.6
20260904215019 30 156 8.0 29.0 0.00 0.08 0.08 100 1015.5
20260904214522 30 167 11.3 29.0 0.00 0.08 0.08 100 1015.7
20260904214019 30 138 9.7 27.4 0.00 0.08 0.08 100 1015.7
20260904213519 31 143 6.4 24.1 0.00 0.08 0.08 100 1015.7
20260904213018 30 146 12.9 25.7 0.00 0.08 0.08 100 1015.8
20260904212518 30 136 12.9 29.0 0.00 0.08 0.08 100 1015.8
20260904212019 31 145 16.1 29.0 0.00 0.08 0.08 100 1015.8
20260904211518 31 142 11.3 24.1 0.00 0.08 0.08 100 1015.9
20260904211018 31 151 11.3 24.1 0.00 0.08 0.08 100 1016.1
20260904210520 31 167 9.7 22.5 0.00 0.08 0.08 100 1016.2
20260904210019 30 126 11.3 22.5 0.00 0.08 0.08 100 1016.2
20260904205517 30 159 12.9 25.7 0.00 0.08 0.08 100 1016.1
20260904205016 30 136 14.5 27.4 0.00 0.08 0.08 100 1016.2
20260904204518 31 168 11.3 22.5 0.00 0.08 0.08 100 1016.2
20260904204015 31 150 12.9 25.7 0.00 0.08 0.08 100 1016.4
20260904203515 31 132 12.9 25.7 0.00 0.08 0.08 100 1016.3
20260904203016 31 149 6.4 24.1 0.00 0.08 0.08 100 1016.2
20260904202517 30 144 8.0 24.1 0.00 0.08 0.08 100 1016.2
20260904202017 30 146 9.7 20.9 0.00 0.08 0.08 100 1016.1
20260904201513 30 185 4.8 20.9 0.00 0.08 0.08 100 1016.0
20260904201014 30 121 4.8 20.9 0.00 0.08 0.08 100 1016.0
20260904200518 30 148 8.0 20.9 0.00 0.08 0.08 100 1016.1
20260904200016 30 133 4.8 16.1 0.00 0.08 0.08 100 1016.2
20260904195513 30 122 6.4 19.3 0.00 0.08 0.08 100 1016.3
20260904195012 30 162 8.0 19.3 0.00 0.08 0.08 100 1016.3
20260904194512 31 117 8.0 22.5 0.00 0.08 0.08 100 1016.4
20260904194012 30 159 11.3 22.5 0.03 0.08 0.08 100 1016.4
20260904193513 30 109 6.4 19.3 0.05 0.08 0.08 100 1016.5
20260904193013 30 148 8.0 19.3 0.05 0.08 0.08 100 1016.8
20260904192513 30 151 6.4 17.7 0.05 0.08 0.08 100 1016.9
20260904192016 30 127 6.4 19.3 0.08 0.08 0.08 100 1016.9
20260904191518 30 133 11.3 19.3 0.08 0.08 0.08 100 1016.9
20260904191012 30 157 6.4 19.3 0.08 0.08 0.08 100 1017.0
20260904190512 29 144 4.8 17.7 0.08 0.08 0.08 100 1017.0
20260904190015 28 147 8.0 17.7 0.08 0.08 0.08 100 1017.0
20260904185512 28 144 6.4 16.1 0.08 0.08 0.08 100 1017.1
20260904185012 28 116 3.2 12.9 0.08 0.08 0.08 100 1017.1
20260904184511 27 112 3.2 14.5 0.08 0.08 0.08 100 1017.1
20260904184011 27 184 8.0 14.5 0.05 0.05 0.05 100 1017.3
20260904183511 27 157 6.4 17.7 0.03 0.03 0.03 100 1017.3
20260904183010 27 171 9.7 20.9 0.03 0.03 0.03 100 1017.4
20260904182513 28 179 6.4 25.7 0.03 0.03 0.03 100 1017.4
20260904182011 28 196 11.3 30.6 0.00 0.00 0.00 100 1017.4
20260904181509 29 149 17.7 30.6 0.00 0.00 0.00 100 1017.3
20260904181013 30 157 11.3 24.1 0.00 0.00 0.00 100 1017.4
20260904180510 30 159 9.7 22.5 0.00 0.00 0.00 100 1017.4
20260904180008 31 145 11.3 22.5 0.00 0.00 0.00 100 1017.5
20260904175507 31 115 11.3 24.1 0.00 0.00 0.00 100 1017.6
20260904175005 31 167 11.3 19.3 0.00 0.00 0.00 100 1017.6
20260904174504 31 51 9.7 22.5 0.00 0.00 0.00 100 1017.6
20260904174002 31 165 9.7 22.5 0.00 0.00 0.00 100 1017.6
20260904173501 32 153 6.4 22.5 0.00 0.00 0.00 100 1017.6
20260904173103 31 127 8.0 22.5 0.00 0.00 0.00 100 1017.6
20260904172558 31 132 6.4 20.9 0.00 0.00 0.00 100 1017.6
20260904172057 31 133 4.8 19.3 0.00 0.00 0.00 100 1017.7
20260904171601 31 123 8.0 17.7 0.00 0.00 0.00 100 1017.8
20260904171055 31 122 6.4 24.1 0.00 0.00 0.00 100 1017.7
20260904170552 31 125 9.7 24.1 0.00 0.00 0.00 100 1017.7
20260904170054 31 109 6.4 14.5 0.00 0.00 0.00 100 1017.7
20260904165549 32 110 4.8 17.7 0.00 0.00 0.00 100 1017.8
20260904165048 32 155 8.0 17.7 0.00 0.00 0.00 100 1017.9
20260904164548 31 124 6.4 12.9 0.00 0.00 0.00 100 1017.9
20260904164044 31 146 6.4 17.7 0.00 0.00 0.00 100 1017.9
20260904163543 32 132 8.0 14.5 0.00 0.00 0.00 100 1018.1
20260904163044 32 170 1.6 11.3 0.00 0.00 0.00 100 1018.0
20260904162540 32 133 4.8 14.5 0.00 0.00 0.00 100 1017.9
20260904162038 32 211 6.4 14.5 0.00 0.00 0.00 100 1017.9
20260904161539 32 240 1.6 9.7 0.00 0.00 0.00 100 1017.9
20260904161035 32 289 3.2 16.1 0.00 0.00 0.00 100 1018.1
20260904160534 31 246 8.0 16.1 0.00 0.00 0.00 100 1018.3
20260904160046 32 206 3.2 11.3 0.00 0.00 0.00 100 1018.3
20260904155532 31 167 4.8 19.3 0.00 0.00 0.00 100 1018.5
20260904155029 31 169 9.7 19.3 0.00 0.00 0.00 100 1018.5
20260904154534 32 170 3.2 12.9 0.00 0.00 0.00 100 1018.6
20260904154030 32 203 4.8 12.9 0.00 0.00 0.00 100 1018.5
20260904153525 31 186 6.4 12.9 0.00 0.00 0.00 100 1018.4
20260904153024 31 181 4.8 12.9 0.00 0.00 0.00 100 1018.4
20260904152523 31 190 4.8 12.9 0.00 0.00 0.00 100 1018.4
20260904152020 31 234 3.2 12.9 0.00 0.00 0.00 100 1018.5
20260904151525 31 170 6.4 16.1 0.00 0.00 0.00 100 1018.5
20260904151019 31 193 4.8 16.1 0.00 0.00 0.00 100 1018.5
20260904150518 31 159 8.0 16.1 0.00 0.00 0.00 100 1018.5
20260904150031 31 247 4.8 17.7 0.00 0.00 0.00 100 1018.5
20260904145515 30 241 8.0 17.7 0.00 0.00 0.00 100 1018.4
20260904145011 31 208 6.4 12.9 0.00 0.00 0.00 100 1018.4
20260904144510 31 154 4.8 14.5 0.00 0.00 0.00 100 1018.2
20260904144008 31 175 4.8 12.9 0.00 0.00 0.00 100 1018.2
20260904143507 30 161 6.4 12.9 0.00 0.00 0.00 100 1018.2
20260904143006 30 229 1.6 9.7 0.00 0.00 0.00 100 1018.1
20260904142504 30 203 3.2 16.1 0.00 0.00 0.00 100 1018.1
20260904142001 30 204 4.8 14.5 0.00 0.00 0.00 100 1018.1
20260904141605 30 155 4.8 16.1 0.00 0.00 0.00 100 1018.0
20260904141500 30 159 3.2 16.1 0.00 0.00 0.00 100 1018.0
20260904141059 30 230 4.8 16.1 0.00 0.00 0.00 100 1017.8
20260904140559 30 205 3.2 11.3 0.00 0.00 0.00 100 1017.8
20260904140105 30 186 1.6 11.3 0.00 0.00 0.00 100 1017.7
20260904135558 30 208 3.2 11.3 0.00 0.00 0.00 100 1017.7
20260904135055 30 233 4.8 11.3 0.00 0.00 0.00 100 1017.6
20260904134603 30 217 3.2 16.1 0.00 0.00 0.00 100 1017.7
20260904134050 30 233 3.2 16.1 0.00 0.00 0.00 100 1017.8
20260904133549 29 202 3.2 11.3 0.00 0.00 0.00 100 1017.8
20260904133053 29 228 3.2 12.9 0.00 0.00 0.00 100 1017.8
20260904132546 29 235 3.2 11.3 0.00 0.00 0.00 100 1017.8
20260904132047 29 235 3.2 14.5 0.00 0.00 0.00 100 1017.7
20260904131546 29 221 4.8 14.5 0.00 0.00 0.00 100 1017.6
20260904131044 28 219 3.2 11.3 0.00 0.00 0.00 100 1017.6
20260904130541 28 212 3.2 11.3 0.00 0.00 0.00 100 1017.5
20260904130050 28 218 0.0 9.7 0.00 0.00 0.00 100 1017.5
20260904125539 28 211 1.6 8.0 0.00 0.00 0.00 100 1017.5
20260904125038 28 192 3.2 8.0 0.00 0.00 0.00 100 1017.4
20260904124538 27 167 3.2 6.4 0.00 0.00 0.00 100 1017.3
20260904124037 27 200 0.0 4.8 0.00 0.00 0.00 100 1017.4
20260904123537 27 180 0.0 4.8 0.00 0.00 0.00 100 1017.4
20260904123036 27 164 0.0 0.0 0.00 0.00 0.00 100 1017.4
20260904122536 26 157 0.0 0.0 0.00 0.00 0.00 100 1017.3
20260904122037 26 157 0.0 0.0 0.00 0.00 0.00 100 1017.2
20260904121539 26 157 0.0 0.0 0.00 0.00 0.00 100 1017.2
20260904121036 26 157 0.0 0.0 0.00 0.00 0.00 100 1017.4
20260904120539 26 157 0.0 0.0 0.00 0.00 0.00 100 1017.2
20260904120034 26 157 0.0 0.0 0.00 0.00 0.00 100 1017.1
20260904115533 26 157 0.0 0.0 0.00 0.00 0.00 100 1017.0
20260904115034 26 157 0.0 0.0 0.00 0.00 0.00 100 1017.0
20260904114534 26 157 0.0 0.0 0.00 0.00 0.00 100 1017.0
20260904114034 26 157 0.0 0.0 0.00 0.00 0.00 100 1017.0
20260904113535 26 157 0.0 0.0 0.00 0.00 0.00 100 1016.9
20260904113035 26 157 0.0 0.0 0.00 0.00 0.00 100 1016.8
20260904112533 26 157 0.0 0.0 0.00 0.00 0.00 100 1016.8
20260904112032 26 157 0.0 0.0 0.00 0.00 0.00 100 1016.8
20260904111539 26 156 0.0 0.0 0.00 0.00 0.00 100 1016.7
20260904111031 26 156 0.0 0.0 0.00 0.00 0.00 100 1016.7
20260904110530 26 156 0.0 0.0 0.00 0.00 0.00 100 1016.5
20260904110030 26 156 0.0 0.0 0.00 0.00 0.00 100 1016.5
20260904105532 26 156 0.0 0.0 0.00 0.00 0.00 100 1016.5
20260904105029 26 156 0.0 0.0 0.00 0.00 0.00 100 1016.5
20260904104534 26 156 0.0 0.0 0.00 0.00 0.00 100 1016.5
20260904104032 26 156 0.0 0.0 0.00 0.00 0.00 100 1016.5
20260904103529 26 156 0.0 0.0 0.00 0.00 0.00 100 1016.5
20260904103029 26 156 0.0 0.0 0.00 0.00 0.00 100 1016.5
20260904102535 26 156 0.0 0.0 0.00 0.00 0.00 100 1016.3
20260904102029 26 156 0.0 1.6 0.00 0.00 0.00 100 1016.3
20260904101529 26 156 0.0 1.6 0.00 0.00 0.00 100 1016.2
20260904101029 26 155 0.0 0.0 0.00 0.00 0.00 100 1016.1
20260904100529 26 155 0.0 0.0 0.00 0.00 0.00 100 1016.1
20260904100029 26 155 0.0 0.0 0.00 0.00 0.00 100 1016.0
20260904095528 26 155 0.0 3.2 0.00 0.00 0.00 100 1015.9
20260904095028 26 155 0.0 3.2 0.00 0.00 0.00 100 1016.0
20260904094527 26 155 0.0 3.2 0.00 0.00 0.00 100 1016.0
20260904094026 26 155 0.0 0.0 0.00 0.00 0.00 100 1015.9
20260904093527 26 155 0.0 0.0 0.00 0.00 0.00 100 1015.9
20260904093026 26 155 0.0 0.0 0.00 0.00 0.00 100 1016.0
20260904092528 26 155 0.0 0.0 0.00 0.00 0.00 100 1015.9
20260904092026 26 155 0.0 0.0 0.00 0.00 0.00 100 1015.9
20260904091526 26 155 0.0 0.0 0.00 0.00 0.00 100 1015.8
20260904091024 26 155 0.0 0.0 0.00 0.00 0.00 100 1015.8
20260904090526 26 155 0.0 0.0 0.00 0.00 0.00 100 1015.8
20260904090030 26 155 0.0 0.0 0.00 0.00 0.00 100 1015.8
20260904085526 26 155 0.0 0.0 0.00 0.00 0.00 100 1015.8
20260904085024 26 155 0.0 0.0 0.00 0.00 0.00 100 1015.7
20260904084525 26 155 0.0 0.0 0.00 0.00 0.00 100 1015.7
20260904084126 26 155 0.0 0.0 0.00 0.00 0.00 100 1015.8
20260904083522 26 155 0.0 0.0 0.00 0.00 0.00 100 1015.7
20260904083021 26 155 0.0 0.0 0.00 0.00 0.00 100 1015.7
20260904082522 26 155 0.0 0.0 0.00 0.00 0.00 100 1015.7
20260904082021 27 155 0.0 0.0 0.00 0.00 0.00 100 1015.8
20260904081521 27 155 0.0 3.2 0.00 0.00 0.00 100 1015.8
20260904081021 27 155 0.0 3.2 0.00 0.00 0.00 100 1015.7
20260904080521 27 155 0.0 4.8 0.00 0.00 0.00 100 1015.7
20260904080021 27 155 0.0 4.8 0.00 0.00 0.00 100 1015.6
20260904075520 27 154 1.6 4.8 0.00 0.00 0.00 100 1015.5
20260904075020 27 153 3.2 4.8 0.00 0.00 0.00 100 1015.6
20260904074530 27 153 0.0 3.2 0.00 0.00 0.00 100 1015.6
20260904074020 27 154 0.0 0.0 0.00 0.00 0.00 100 1015.4
20260904073523 27 154 0.0 0.0 0.00 0.00 0.00 100 1015.5
20260904073020 27 154 0.0 0.0 0.00 0.00 0.00 100 1015.4
20260904072520 27 154 0.0 0.0 0.00 0.00 0.00 100 1015.5
20260904072020 27 154 0.0 0.0 0.00 0.00 0.00 100 1015.6
20260904071518 27 154 0.0 0.0 0.00 0.00 0.00 100 1015.6
20260904071017 27 154 0.0 0.0 0.00 0.00 0.00 100 1015.6
20260904070520 27 154 0.0 0.0 0.00 0.00 0.00 100 1015.7
20260904070017 27 154 0.0 0.0 0.00 0.00 0.00 100 1015.7
20260904065515 27 154 0.0 0.0 0.00 0.00 0.00 100 1015.8
20260904065015 27 154 0.0 0.0 0.00 0.00 0.00 100 1015.8
20260904064515 27 154 0.0 0.0 0.00 0.00 0.00 100 1015.8
20260904064014 27 154 0.0 0.0 0.00 0.00 0.00 100 1015.8
20260904063513 27 154 0.0 0.0 0.00 0.00 0.00 100 1015.9
20260904063014 27 154 0.0 0.0 0.00 0.00 0.00 100 1016.0
20260904062512 27 154 0.0 0.0 0.00 0.00 0.00 100 1015.9
20260904062013 27 154 0.0 0.0 0.00 0.00 0.00 100 1015.9
20260904061520 27 154 0.0 0.0 0.00 0.00 0.00 100 1016.0
20260904061017 27 154 0.0 0.0 0.00 0.00 0.00 100 1016.0
20260904060511 27 154 0.0 4.8 0.00 0.00 0.00 100 1016.1
20260904060018 27 154 0.0 8.0 0.00 0.00 0.00 100 1016.2
20260904055510 27 154 1.6 11.3 0.00 0.00 0.00 100 1016.1
20260904055009 27 148 3.2 11.3 0.00 0.00 0.00 100 1016.2
20260904054514 27 152 3.2 9.7 0.00 0.00 0.00 100 1016.3
20260904054008 27 177 3.2 9.7 0.00 0.00 0.00 100 1016.3
20260904053510 27 149 3.2 9.7 0.00 0.00 0.00 100 1016.4
20260904053008 27 151 3.2 9.7 0.00 0.00 0.00 100 1016.4
20260904052512 27 155 3.2 8.0 0.00 0.00 0.00 100 1016.4
20260904052010 27 147 3.2 11.3 0.00 0.00 0.00 100 1016.4
20260904051514 27 157 3.2 12.9 0.00 0.00 0.00 100 1016.4
20260904051008 27 175 3.2 14.5 0.00 0.00 0.00 100 1016.4
20260904050508 27 172 3.2 14.5 0.00 0.00 0.00 100 1016.3
20260904050006 27 177 8.0 14.5 0.00 0.00 0.00 100 1016.4
20260904045508 27 140 6.4 12.9 0.00 0.00 0.00 100 1016.4
20260904045005 27 169 3.2 11.3 0.00 0.00 0.00 100 1016.4
20260904044505 27 136 4.8 12.9 0.00 0.00 0.00 100 1016.4
20260904044006 28 142 0.0 12.9 0.00 0.00 0.00 100 1016.4
20260904043504 28 187 4.8 12.9 0.00 0.00 0.00 100 1016.6
20260904043004 27 158 6.4 12.9 0.00 0.00 0.00 100 1016.5
20260904042504 27 138 4.8 11.3 0.00 0.00 0.00 100 1016.5
20260904042003 27 174 3.2 11.3 0.00 0.00 0.00 100 1016.4
20260904041503 27 143 4.8 14.5 0.00 0.00 0.00 100 1016.4
20260904041003 27 159 6.4 12.9 0.00 0.00 0.00 100 1016.5
20260904040502 27 159 3.2 11.3 0.00 0.00 0.00 100 1016.7
20260904040004 27 155 4.8 11.3 0.00 0.00 0.00 100 1016.5
20260904035603 27 140 0.0 6.4 0.00 0.00 0.00 100 1016.5
20260904035101 27 140 1.6 6.4 0.00 0.00 0.00 100 1016.5
20260904034559 27 142 0.0 6.4 0.00 0.00 0.00 100 1016.5
20260904034101 27 142 0.0 6.4 0.00 0.00 0.00 100 1016.6
20260904033600 27 142 0.0 11.3 0.00 0.00 0.00 100 1016.5
20260904033100 27 141 3.2 11.3 0.00 0.00 0.00 100 1016.5
20260904032559 27 155 1.6 8.0 0.00 0.00 0.00 100 1016.5
20260904032058 27 155 1.6 6.4 0.00 0.00 0.00 100 1016.7
20260904031600 27 132 1.6 6.4 0.00 0.00 0.00 100 1016.6
20260904031058 27 132 1.6 6.4 0.00 0.00 0.00 100 1016.6
20260904030559 27 129 3.2 11.3 0.00 0.00 0.00 100 1016.6
20260904030058 27 134 3.2 11.3 0.00 0.00 0.00 100 1016.7
20260904025558 27 129 1.6 8.0 0.00 0.00 0.00 100 1016.7
20260904025057 26 158 0.0 0.0 0.00 0.00 0.00 100 1016.7
20260904024558 26 159 0.0 0.0 0.00 0.00 0.00 100 1016.9
20260904024100 26 159 0.0 0.0 0.00 0.00 0.00 100 1016.8
20260904023557 27 159 0.0 1.6 0.00 0.00 0.00 100 1016.8
20260904023058 27 159 0.0 4.8 0.00 0.00 0.00 100 1016.9
20260904022557 27 159 1.6 4.8 0.00 0.00 0.00 100 1016.9
20260904022057 27 157 0.0 0.0 0.00 0.00 0.00 100 1016.9
20260904021557 27 157 0.0 0.0 0.00 0.00 0.00 100 1016.9
20260904021057 27 157 0.0 0.0 0.00 0.00 0.00 100 1016.9